DW3349 Weather Reports


time (UTC)temp
C
wind
direction
speed
KPH
gust
KPH
rain 1hr
cm
rain 24hr
cm
rain mn
cm
humidity
%
barometer
mb
20260506135243 14 0 9.7 30.6 0.00 0.00 0.00 73 1009.6
20260506134743 14 0 17.7 30.6 0.00 0.00 0.00 73 1009.6
20260506134241 14 10 9.7 29.0 0.00 0.00 0.00 73 1009.7
20260506133743 14 1 12.9 35.4 0.00 0.00 0.00 72 1009.6
20260506133243 14 330 14.5 35.4 0.00 0.00 0.00 73 1009.6
20260506132742 14 48 14.5 27.4 0.00 0.00 0.00 74 1009.5
20260506132239 14 18 14.5 32.2 0.00 0.00 0.00 75 1009.5
20260506131739 14 0 14.5 32.2 0.00 0.00 0.00 74 1009.5
20260506131238 13 4 9.7 29.0 0.00 0.00 0.00 76 1009.5
20260506131005 13 28 11.3 29.0 0.00 0.00 0.00 77 1009.6
20260506130240 13 30 4.8 22.5 0.00 0.00 0.00 77 1009.5
20260506125739 13 18 9.7 22.5 0.00 0.00 0.00 77 1009.5
20260506125242 13 34 12.9 29.0 0.00 0.00 0.00 76 1009.5
20260506124746 13 56 8.0 27.4 0.00 0.00 0.00 76 1009.5
20260506124741 13 337 14.5 29.0 0.00 0.00 0.00 76 1009.5
20260506123737 13 334 12.9 33.8 0.00 0.00 0.00 75 1009.5
20260506123238 13 44 14.5 33.8 0.00 0.00 0.00 74 1009.4
20260506122739 13 24 14.5 35.4 0.00 0.00 0.00 74 1009.4
20260506122238 13 20 12.9 35.4 0.00 0.00 0.00 74 1009.4
20260506121739 13 13 9.7 30.6 0.00 0.00 0.00 75 1009.3
20260506121240 13 23 12.9 30.6 0.00 0.00 0.00 74 1009.3
20260506120736 13 0 11.3 24.1 0.00 0.00 0.00 75 1009.3
20260506120237 13 0 14.5 25.7 0.00 0.00 0.00 75 1009.3
20260506115739 13 357 8.0 25.7 0.00 0.00 0.00 75 1009.2
20260506115237 13 34 14.5 27.4 0.00 0.00 0.00 74 1009.1
20260506114738 13 21 9.7 27.4 0.00 0.00 0.00 74 1009.2
20260506114235 13 0 12.9 27.4 0.00 0.00 0.00 74 1009.3
20260506113736 13 18 9.7 25.7 0.00 0.00 0.00 74 1009.3
20260506113235 13 35 9.7 22.5 0.00 0.00 0.00 74 1009.3
20260506112800 13 0 14.5 25.7 0.00 0.00 0.00 75 1009.3
20260506112751 13 27 6.4 25.7 0.00 0.00 0.00 74 1009.2
20260506111737 13 94 11.3 24.1 0.00 0.00 0.00 75 1009.2
20260506111235 13 0 11.3 24.1 0.00 0.00 0.00 75 1009.3
20260506110745 13 47 8.0 24.1 0.00 0.00 0.00 75 1009.3
20260506110738 13 54 11.3 24.1 0.00 0.00 0.00 76 1009.3
20260506105733 13 344 16.1 29.0 0.00 0.00 0.00 76 1009.3
20260506105234 13 8 12.9 29.0 0.00 0.00 0.00 76 1009.3
20260506104734 13 17 11.3 22.5 0.00 0.00 0.00 76 1009.2
20260506104234 13 353 9.7 25.7 0.00 0.00 0.00 76 1009.3
20260506103735 13 55 11.3 27.4 0.00 0.00 0.00 75 1009.3
20260506103236 13 80 9.7 27.4 0.00 0.00 0.00 75 1009.4
20260506102735 13 44 12.9 32.2 0.00 0.00 0.00 76 1009.3
20260506102235 13 354 14.5 32.2 0.00 0.00 0.00 76 1009.2
20260506101735 13 0 12.9 30.6 0.00 0.00 0.00 75 1009.2
20260506101234 13 14 17.7 30.6 0.00 0.00 0.00 75 1009.2
20260506100731 13 83 12.9 29.0 0.00 0.00 0.00 75 1009.1
20260506100232 13 55 17.7 27.4 0.00 0.00 0.00 76 1009.1
20260506095734 13 24 6.4 27.4 0.00 0.00 0.00 76 1009.2
20260506095458 13 48 14.5 25.7 0.00 0.00 0.00 75 1009.2
20260506094732 13 11 9.7 25.7 0.00 0.00 0.00 76 1009.1
20260506094231 13 326 4.8 24.1 0.00 0.00 0.00 78 1009.1
20260506093732 12 62 11.3 24.1 0.00 0.00 0.00 78 1009.1
20260506093231 12 347 8.0 22.5 0.00 0.00 0.00 79 1009.0
20260506092731 12 6 12.9 22.5 0.00 0.00 0.00 80 1009.1
20260506092231 12 17 9.7 22.5 0.00 0.00 0.00 80 1009.0
20260506091731 12 37 9.7 24.1 0.00 0.00 0.00 80 1009.0
20260506091231 12 14 8.0 24.1 0.00 0.00 0.00 80 1009.1
20260506090731 12 0 6.4 24.1 0.00 0.00 0.00 81 1009.0
20260506090231 12 34 12.9 25.7 0.00 0.00 0.00 82 1009.0
20260506085958 12 47 11.3 25.7 0.00 0.00 0.00 82 1009.0
20260506085230 11 334 6.4 24.1 0.00 0.00 0.00 82 1009.0
20260506084732 11 336 6.4 24.1 0.00 0.00 0.00 82 1008.9
20260506084456 11 0 11.3 29.0 0.00 0.00 0.00 82 1008.8
20260506083729 11 48 12.9 29.0 0.00 0.00 0.00 82 1008.9
20260506083454 11 51 8.0 20.9 0.00 0.00 0.00 82 1008.8
20260506082728 11 0 8.0 20.9 0.00 0.00 0.00 83 1008.8
20260506082226 11 69 3.2 20.9 0.00 0.00 0.00 83 1008.7
20260506081727 11 30 8.0 20.9 0.00 0.00 0.00 83 1008.8
20260506081459 11 47 6.4 24.1 0.00 0.00 0.00 84 1008.8
20260506080954 11 24 8.0 27.4 0.00 0.00 0.00 84 1008.7
20260506080227 11 93 9.7 27.4 0.00 0.00 0.00 84 1008.8
20260506073221 11 24 16.1 27.4 0.00 0.00 0.00 85 1008.7
20260506072721 11 18 9.7 25.7 0.00 0.00 0.00 85 1008.7
20260506072452 11 48 9.7 25.7 0.00 0.00 0.00 85 1008.6
20260506071717 11 62 11.3 24.1 0.00 0.00 0.00 85 1008.6
20260506071218 11 47 4.8 27.4 0.00 0.00 0.00 85 1008.7
20260506070717 11 58 4.8 27.4 0.00 0.00 0.00 85 1008.7
20260506070218 11 51 8.0 25.7 0.00 0.00 0.00 85 1008.7
20260506062218 10 3 9.7 24.1 0.00 0.00 0.00 86 1008.5
20260506061711 10 106 9.7 24.1 0.00 0.00 0.00 86 1008.5
20260506061213 10 17 6.4 17.7 0.00 0.00 0.00 86 1008.4
20260506060712 10 38 6.4 25.7 0.00 0.00 0.00 86 1008.4
20260506060211 10 350 12.9 25.7 0.00 0.00 0.00 86 1008.5
20260506051208 10 80 8.0 24.1 0.00 0.00 0.00 86 1008.4
20260506050706 10 71 9.7 24.1 0.00 0.00 0.00 87 1008.4
20260506050211 10 8 4.8 24.1 0.00 0.00 0.00 86 1008.4
20260506050206 10 47 6.4 24.1 0.00 0.00 0.00 86 1008.4
20260506044936 10 52 9.7 29.0 0.00 0.00 0.00 86 1008.4
20260506044204 10 38 9.7 29.0 0.00 0.00 0.00 86 1008.4
20260506043704 10 96 6.4 27.4 0.00 0.00 0.00 86 1008.4
20260506043204 10 65 6.4 25.7 0.00 0.00 0.00 86 1008.5
20260506042702 10 3 9.7 29.0 0.00 0.00 0.00 86 1008.4
20260506042205 10 21 9.7 29.0 0.00 0.00 0.00 86 1008.4
20260506041704 10 28 9.7 25.7 0.00 0.00 0.00 86 1008.4
20260506041203 10 18 8.0 25.7 0.00 0.00 0.00 86 1008.5
20260506040715 10 34 6.4 27.4 0.00 0.00 0.00 87 1008.5
20260506040707 10 41 9.7 22.5 0.00 0.00 0.00 87 1008.6
20260506035702 10 357 4.8 27.4 0.00 0.00 0.00 87 1008.5
20260506035201 10 34 9.7 25.7 0.00 0.00 0.00 87 1008.5
20260506034933 9 353 11.3 35.4 0.00 0.00 0.00 87 1008.6
20260506034202 9 31 6.4 35.4 0.00 0.00 0.00 87 1008.6
20260506033659 9 56 9.7 25.7 0.00 0.00 0.00 87 1008.6
20260506033200 9 52 3.2 22.5 0.00 0.00 0.00 87 1008.7
20260506032700 9 68 6.4 22.5 0.00 0.00 0.00 87 1008.7
20260506032157 9 51 11.3 20.9 0.00 0.00 0.00 87 1008.7
20260506031657 9 65 6.4 20.9 0.00 0.00 0.00 87 1008.6
20260506031200 9 48 9.7 20.9 0.00 0.00 0.00 87 1008.7
20260506030655 9 52 4.8 22.5 0.00 0.00 0.00 87 1008.7
20260506030155 9 48 8.0 22.5 0.00 0.00 0.00 87 1008.8
20260506025919 9 61 9.7 22.5 0.00 0.00 0.00 87 1008.9
20260506025153 8 30 8.0 22.5 0.00 0.00 0.00 87 1008.9
20260506024654 8 345 6.4 17.7 0.00 0.00 0.00 87 1009.0
20260506024150 8 51 4.8 20.9 0.00 0.00 0.00 87 1008.9
20260506023651 8 326 4.8 20.9 0.00 0.00 0.00 86 1008.9
20260506023151 8 38 3.2 19.3 0.00 0.00 0.00 87 1009.0
20260506022900 8 38 12.9 19.3 0.00 0.00 0.00 87 1009.0
20260506021650 8 65 9.7 20.9 0.00 0.00 0.00 87 1009.0
20260506021150 8 80 4.8 20.9 0.00 0.00 0.00 87 1009.0
20260506020647 8 6 4.8 14.5 0.00 0.00 0.00 86 1009.1
20260506020148 8 34 6.4 14.5 0.00 0.00 0.00 86 1009.2
20260506015648 8 73 6.4 14.5 0.00 0.00 0.00 86 1009.1
20260506015147 8 14 4.8 14.5 0.00 0.00 0.00 86 1009.1
20260506014644 8 14 6.4 11.3 0.00 0.00 0.00 86 1009.1
20260506014144 8 21 4.8 11.3 0.00 0.00 0.00 86 1009.1
20260506013653 8 83 4.8 17.7 0.00 0.00 0.00 86 1009.2
20260506013644 8 17 4.8 17.7 0.00 0.00 0.00 86 1009.2
20260506012643 8 38 8.0 19.3 0.00 0.00 0.00 86 1009.1
20260506012143 8 55 6.4 19.3 0.00 0.00 0.00 86 1009.2
20260506011642 8 65 6.4 20.9 0.00 0.00 0.00 85 1009.2
20260506011143 8 4 11.3 20.9 0.00 0.00 0.00 85 1009.2
20260506010645 8 61 9.7 17.7 0.00 0.00 0.00 85 1009.2
20260506010141 8 54 6.4 20.9 0.00 0.00 0.00 85 1009.2
20260506005913 8 51 6.4 20.9 0.00 0.00 0.00 84 1009.3
20260506005414 8 68 9.7 19.3 0.00 0.00 0.00 84 1009.3
20260506004639 8 63 8.0 20.9 0.00 0.00 0.00 84 1009.4
20260506004139 8 27 9.7 20.9 0.00 0.00 0.00 84 1009.4
20260506003637 8 25 8.0 19.3 0.00 0.00 0.00 84 1009.4
20260506003135 8 68 6.4 17.7 0.00 0.00 0.00 84 1009.5
20260506002904 8 47 9.7 19.3 0.00 0.00 0.00 83 1009.6
20260506002133 8 34 8.0 19.3 0.00 0.00 0.00 83 1009.7
20260506001635 8 71 4.8 19.3 0.00 0.00 0.00 83 1009.6
20260506001134 8 8 6.4 19.3 0.00 0.00 0.00 82 1009.7
20260506000904 8 41 11.3 19.3 0.00 0.00 0.00 81 1009.7
20260506000135 8 0 6.4 17.7 0.00 0.00 0.00 81 1009.8
20260505235632 8 56 3.2 16.1 0.00 0.00 0.00 81 1009.8
20260505235133 8 56 6.4 16.1 0.00 0.00 0.00 81 1009.9
20260505234632 8 38 4.8 16.1 0.00 0.00 0.00 80 1009.8
20260505234132 8 11 6.4 17.7 0.00 0.00 0.00 80 1009.9
20260505233634 8 65 6.4 20.9 0.00 0.00 0.00 80 1009.9
20260505233131 8 23 9.7 20.9 0.00 0.00 0.00 80 1010.0
20260505232630 8 39 8.0 19.3 0.00 0.00 0.00 79 1010.0
20260505232129 8 18 8.0 19.3 0.00 0.00 0.00 79 1010.0
20260505231630 8 10 8.0 19.3 0.00 0.00 0.00 79 1010.1
20260505231409 8 32 6.4 22.5 0.00 0.00 0.00 79 1010.1
20260505230907 8 45 8.0 22.5 0.00 0.00 0.00 79 1010.2
20260505230403 8 25 6.4 14.5 0.00 0.00 0.00 79 1010.1
20260505225631 8 51 4.8 14.5 0.00 0.00 0.00 78 1010.1
20260505225130 8 86 4.8 11.3 0.00 0.00 0.00 78 1010.2
20260505224631 8 48 6.4 14.5 0.00 0.00 0.00 78 1010.1
20260505224130 9 51 4.8 19.3 0.00 0.00 0.00 78 1010.1
20260505223902 9 61 4.8 19.3 0.00 0.00 0.00 77 1010.1
20260505223129 9 21 6.4 17.7 0.00 0.00 0.00 77 1010.2
20260505222631 9 20 4.8 14.5 0.00 0.00 0.00 77 1010.2
20260505222128 9 31 4.8 16.1 0.00 0.00 0.00 77 1010.2
20260505221627 9 35 8.0 16.1 0.00 0.00 0.00 77 1010.3
20260505221126 9 8 4.8 11.3 0.00 0.00 0.00 77 1010.4
20260505220625 9 41 8.0 16.1 0.00 0.00 0.00 77 1010.4
20260505220125 9 58 4.8 16.1 0.00 0.00 0.00 77 1010.4
20260505215626 9 63 6.4 19.3 0.00 0.00 0.00 77 1010.5
20260505215123 9 24 6.4 19.3 0.00 0.00 0.00 76 1010.5
20260505214620 9 69 3.2 16.1 0.00 0.00 0.00 76 1010.5
20260505214137 9 27 8.0 17.7 0.00 0.00 0.00 76 1010.4
20260505214130 9 45 4.8 17.7 0.00 0.00 0.00 76 1010.5
20260505213121 10 34 3.2 14.5 0.00 0.00 0.00 76 1010.5
20260505212621 10 21 6.4 14.5 0.00 0.00 0.00 76 1010.6
20260505212123 10 48 6.4 14.5 0.00 0.00 0.00 76 1010.6
20260505211850 10 39 3.2 16.1 0.00 0.00 0.00 76 1010.6
20260505211123 10 63 6.4 16.1 0.00 0.00 0.00 76 1010.6
20260505210620 10 27 4.8 9.7 0.00 0.00 0.00 76 1010.6
20260505210120 10 49 4.8 9.7 0.00 0.00 0.00 76 1010.7
20260505205620 10 55 3.2 9.7 0.00 0.00 0.00 76 1010.7
20260505205350 10 61 3.2 11.3 0.00 0.00 0.00 76 1010.7
20260505204619 10 38 6.4 11.3 0.00 0.00 0.00 76 1010.7
20260505204120 10 8 6.4 11.3 0.00 0.00 0.00 76 1010.7
20260505203619 10 45 4.8 17.7 0.00 0.00 0.00 76 1010.7
20260505203119 10 41 4.8 17.7 0.00 0.00 0.00 76 1010.6
20260505202620 10 27 9.7 17.7 0.00 0.00 0.00 75 1010.7
20260505202118 10 68 4.8 20.9 0.00 0.00 0.00 76 1010.6
20260505201618 10 59 9.7 20.9 0.00 0.00 0.00 76 1010.6
20260505201117 10 72 8.0 19.3 0.00 0.00 0.00 76 1010.5
20260505200619 10 58 8.0 24.1 0.00 0.00 0.00 75 1010.5
20260505200119 10 27 8.0 24.1 0.00 0.00 0.00 75 1010.5
20260505195616 10 71 8.0 17.7 0.00 0.00 0.00 75 1010.5
20260505195117 11 44 6.4 20.9 0.00 0.00 0.00 75 1010.4
20260505194617 11 31 11.3 24.1 0.00 0.00 0.00 75 1010.4
20260505194117 11 65 11.3 24.1 0.00 0.00 0.00 75 1010.3
20260505193618 11 6 9.7 22.5 0.00 0.00 0.00 76 1010.3
20260505193351 11 42 4.8 20.9 0.00 0.00 0.00 76 1010.2
20260505192617 11 6 9.7 19.3 0.00 0.00 0.00 76 1010.1
20260505192117 11 0 3.2 19.3 0.00 0.00 0.00 76 1010.1
20260505191616 11 42 8.0 24.1 0.00 0.00 0.00 76 1010.1
20260505191116 11 11 6.4 24.1 0.00 0.00 0.00 76 1010.0
20260505190614 11 7 9.7 22.5 0.00 0.00 0.00 76 1009.9
20260505190114 11 0 9.7 27.4 0.00 0.00 0.00 76 1009.9
20260505185616 11 68 9.7 27.4 0.00 0.00 0.00 76 1009.9
20260505185115 11 56 11.3 24.1 0.00 0.00 0.00 76 1009.8
20260505184613 11 59 6.4 20.9 0.00 0.00 0.00 76 1009.9
20260505184112 11 23 8.0 24.1 0.00 0.00 0.00 76 1009.8
20260505183615 11 63 9.7 24.1 0.00 0.00 0.00 76 1009.8
20260505183114 11 1 4.8 27.4 0.00 0.00 0.00 76 1009.7
20260505182610 12 120 11.3 29.0 0.00 0.00 0.00 76 1009.7
20260505182110 12 41 14.5 29.0 0.00 0.00 0.00 76 1009.7
20260505181610 12 61 14.5 24.1 0.00 0.00 0.00 76 1009.7
20260505181109 12 314 8.0 24.1 0.00 0.00 0.00 76 1009.6
20260505180840 12 3 8.0 25.7 0.00 0.00 0.00 76 1009.7
20260505180109 12 25 14.5 25.7 0.00 0.00 0.00 76 1009.8
20260505175608 12 54 11.3 27.4 0.00 0.00 0.00 75 1009.8
20260505175107 12 39 9.7 30.6 0.00 0.00 0.00 76 1009.8
20260505174606 12 0 8.0 30.6 0.00 0.00 0.00 76 1009.9
20260505174104 12 6 6.4 29.0 0.00 0.00 0.00 75 1009.8
20260505173613 12 0 14.5 30.6 0.00 0.00 0.00 75 1009.8
20260505173607 12 20 14.5 30.6 0.00 0.00 0.00 75 1009.8
20260505172834 12 16 11.3 27.4 0.00 0.00 0.00 75 1009.8
20260505172105 12 358 12.9 29.0 0.00 0.00 0.00 75 1009.9
20260505171606 12 23 17.7 35.4 0.00 0.00 0.00 75 1009.8
20260505171334 12 68 14.5 35.4 0.00 0.00 0.00 75 1009.8
20260505170604 12 14 9.7 25.7 0.00 0.00 0.00 75 1009.9
20260505170105 12 0 14.5 32.2 0.00 0.00 0.00 75 1009.9
20260505165835 12 63 11.3 32.2 0.00 0.00 0.00 75 1010.0
20260505165333 12 35 12.9 30.6 0.00 0.00 0.00 75 1010.0
20260505164604 12 348 9.7 30.6 0.00 0.00 0.00 75 1010.0
20260505164101 12 334 11.3 29.0 0.00 0.00 0.00 74 1010.0
20260505163602 12 51 14.5 27.4 0.00 0.00 0.00 74 1010.0
20260505163102 12 333 6.4 24.1 0.00 0.00 0.00 74 1009.9
20260505162604 12 31 9.7 29.0 0.00 0.00 0.00 74 1009.9
20260505162107 13 38 11.3 27.4 0.00 0.00 0.00 74 1009.9
20260505162103 12 58 12.9 29.0 0.00 0.00 0.00 74 1009.9
20260505161102 13 333 14.5 27.4 0.00 0.00 0.00 74 1010.0
20260505160603 13 65 6.4 29.0 0.00 0.00 0.00 73 1009.9
20260505160104 13 0 16.1 29.0 0.00 0.00 0.00 73 1010.0
20260505153101 13 348 12.9 25.7 0.00 0.00 0.00 72 1010.0
20260505152602 13 35 16.1 32.2 0.00 0.00 0.00 72 1010.0
20260505152102 13 23 9.7 32.2 0.00 0.00 0.00 72 1010.1
20260505151601 13 49 8.0 33.8 0.00 0.00 0.00 72 1010.1
20260505151058 13 8 14.5 33.8 0.00 0.00 0.00 72 1010.0
20260505150559 13 10 6.4 25.7 0.00 0.00 0.00 72 1010.1
20260505140555 14 39 11.3 30.6 0.00 0.00 0.00 70 1010.2